Starlink 1230

operational
NORAD ID: 45189 Int'l Des: 2020-012 Owner: SPXS Country: US Constellation: starlink
LEOCIRCULARSTARLINK_TYPE

About Starlink 1230

Description loading...

Live Position

Loading 3D Globe...

Upcoming Passes

Altitude History

Altitude vs Time

uPlot chart will show altitude changes over time

Two-Line Element Set

1 45189U 20012M 25350.52252581 .00002815 00000-0 20789-3 0 9992
2 45189 53.0557 59.9739 0001246 89.5321 270.5811 15.06386765319528
Epoch: Dec 16, 2025 • Age: 31 hours

Current Status

Altitude 565.4 km
Velocity 7.58 km/s
Sub-Earth Point -50.27°S, 87.2°W
Launch Date Feb 17, 2020
Age 5.8 years
Type internet

Technical Details

Classification Payload
Mass 260.00 kg
Dry Mass 248.00 kg
Total Mass 260.00 kg
Length 0.20 m
Diameter 2.80 m
Span 9.00 m
Shape Box + pan
Manufacturer SPXS
Bus Type Starlink
Phase Status In Orbit
Owner/State SPXS/US

Large Constellations

Loading constellations...